This demonstration page uses our WeatherBlox Daily Observations layout. Learn more.

Left ArrowRight Arrow

39.12711, -84.51439

Hourly Observations for June 17, 2017

Temp ( °F °C ) Dew Point ( °F °C ) Humidity (%) Winds ( mph kmh ) Pressure ( in mb ) Visibility ( mi km ) Precip ( " mm )
12:53 am 00:53 Clear 69 20.6 68 20 96 96 Calm 29.81 1010 10 16 0.00 0.00
1:53 am 01:53 Clear 67 19.4 67 19.4 100 100 Calm 29.79 1009 10 16 0.00 0.00
2:53 am 02:53 Clear 68 20 67 19.4 96 96 Calm 29.79 1009 9 14 0.00 0.00
3:53 am 03:53 Clear 66 18.9 65 18.3 96 96 Calm 29.80 1009 7 11 0.00 0.00
4:18 am 04:18 Clear with Mist and Fog 67 19.4 66 18.9 97 97 Calm 29.80 1009 2 3 0.00 0.00
4:27 am 04:27 Clear with Mist and Fog 67 19.4 66 18.9 97 97 Calm 29.80 1009 4 6 0.00 0.00
4:53 am 04:53 Clear with Mist and Fog 66 18.9 66 18.9 100 100 Calm 29.79 1009 6 10 0.00 0.00
5:26 am 05:26 Clear with Mist and Fog 65 18.3 65 18.3 100 100 Calm 29.80 1009 2 3 0.00 0.00
5:49 am 05:49 Clear with Mist and Fog 64 18 64 18 100 100 Calm 29.83 1010 3 5 0.00 0.00
5:53 am 05:53 Clear with Mist and Fog 65 18.3 65 18.3 100 100 Calm 29.80 1009 4 6 0.00 0.00
6:36 am 06:36 Sunny with Mist and Fog 66 18.9 66 18.9 100 100 Calm 29.83 1010 2 3 0.00 0.00
6:46 am 06:46 Sunny with Mist and Fog 66 18.9 65 18.3 96 96 Calm 29.83 1010 4 6 0.00 0.00
6:53 am 06:53 Sunny with Fog 66 18.9 66 18.9 100 100 Calm 29.82 1010 7 11 0.00 0.00
7:53 am 07:53 Sunny 71 21.7 69 20.6 94 94 SSW 5 7 29.82 1010 7 11 0.00 0.00
8:53 am 08:53 Sunny 74 23.3 70 21.1 88 88 S 3 6 29.83 1010 10 16 0.00 0.00
9:53 am 09:53 Sunny 80 26.7 71 21.7 74 74 SSW 8 13 29.82 1010 10 16 0.00 0.00
10:53 am 10:53 Partly Cloudy 82 27.8 70 21.1 67 67 WSW 8 13 29.80 1009 10 16 0.00 0.00
11:53 am 11:53 Mostly Sunny 84 28.9 70 21.1 63 63 SW 8 13 29.80 1009 10 16 0.00 0.00
12:53 pm 12:53 Partly Cloudy 86 30 70 21.1 59 59 S 14 22 29.79 1009 10 16 0.00 0.00
1:53 pm 13:53 Partly Cloudy 86 30 70 21.1 59 59 SSW 10 17 29.78 1009 10 16 0.00 0.00
2:53 pm 14:53 Partly Cloudy 87 30.6 71 21.7 59 59 SSW 12 19 29.77 1008 10 16 0.00 0.00
3:53 pm 15:53 Partly Cloudy 88 31.1 69 20.6 54 54 SSW 12 19 29.75 1007 10 16 0.00 0.00
4:53 pm 16:53 Mostly Sunny 87 30.6 69 20.6 55 55 SSW 13 20 29.74 1007 10 16 0.00 0.00
5:53 pm 17:53 Mostly Sunny 87 30.6 69 20.6 55 55 S 13 20 29.74 1007 10 16 0.00 0.00
6:53 pm 18:53 Mostly Sunny 87 30.6 68 20 53 53 SSW 10 17 29.74 1007 10 16 0.00 0.00
7:53 pm 19:53 Sunny 83 28.3 69 20.6 63 63 SSW 9 15 29.73 1007 10 16 0.00 0.00
8:53 pm 20:53 Sunny 81 27.2 69 20.6 67 67 S 7 11 29.73 1007 10 16 0.00 0.00
9:53 pm 21:53 Clear 77 25 68 20 74 74 S 6 9 29.74 1007 10 16 0.00 0.00
10:53 pm 22:53 Clear 76 24.4 67 19.4 74 74 S 9 15 29.74 1007 10 16 0.00 0.00
11:53 pm 23:53 Clear 76 24.4 67 19.4 74 74 S 6 9 29.75 1007 10 16 0.00 0.00

Powered by AerisWeather